FW5225 Weather Reports


time (UTC)temp
C
wind
direction
speed
KPH
gust
KPH
rain 1hr
cm
rain 24hr
cm
rain mn
cm
humidity
%
barometer
mb
20260906222014 38 290 1.6 12.9 0.00 0.00 0.00 23 1005.1
20260906221513 39 42 4.8 16.1 0.00 0.00 0.00 23 1005.1
20260906221012 39 322 8.0 16.1 0.00 0.00 0.00 24 1005.2
20260906220512 39 297 6.4 16.1 0.00 0.00 0.00 22 1005.3
20260906220012 40 281 3.2 16.1 0.00 0.00 0.00 22 1005.4
20260906215511 40 346 4.8 16.1 0.00 0.00 0.00 22 1005.5
20260906215010 39 178 1.6 14.5 0.00 0.00 0.00 22 1005.5
20260906214517 39 344 4.8 14.5 0.00 0.00 0.00 22 1005.6
20260906214008 39 270 4.8 14.5 0.00 0.00 0.00 22 1005.7
20260906213507 39 243 6.4 14.5 0.00 0.00 0.00 22 1005.8
20260906213007 39 266 8.0 14.5 0.00 0.00 0.00 23 1005.9
20260906212507 39 248 1.6 16.1 0.00 0.00 0.00 22 1005.9
20260906212006 39 267 6.4 16.1 0.00 0.00 0.00 23 1005.9
20260906211505 39 345 8.0 16.1 0.00 0.00 0.00 23 1005.9
20260906211004 39 252 1.6 11.3 0.00 0.00 0.00 23 1006.0
20260906210504 39 301 4.8 17.7 0.00 0.00 0.00 23 1006.1
20260906210005 39 286 8.0 17.7 0.00 0.00 0.00 23 1006.2
20260906205503 39 277 3.2 11.3 0.00 0.00 0.00 23 1006.2
20260906205001 38 243 1.6 14.5 0.00 0.00 0.00 23 1006.2
20260906204502 38 259 6.4 14.5 0.00 0.00 0.00 24 1006.2
20260906204002 38 335 4.8 17.7 0.00 0.00 0.00 25 1006.1
20260906203600 38 277 4.8 17.7 0.00 0.00 0.00 24 1006.2
20260906203100 38 15 1.6 14.5 0.00 0.00 0.00 23 1006.4
20260906202601 38 199 4.8 16.1 0.00 0.00 0.00 23 1006.4
20260906202059 38 257 6.4 17.7 0.00 0.00 0.00 23 1006.4
20260906201611 38 271 6.4 14.5 0.00 0.00 0.00 23 1006.4
20260906201058 38 217 1.6 8.0 0.00 0.00 0.00 24 1006.4
20260906200557 37 238 0.0 16.1 0.00 0.00 0.00 24 1006.6
20260906200057 37 46 4.8 16.1 0.00 0.00 0.00 26 1006.6
20260906195556 37 290 3.2 11.3 0.00 0.00 0.00 24 1006.7
20260906195055 37 262 4.8 11.3 0.00 0.00 0.00 24 1006.6
20260906194555 37 300 1.6 16.1 0.00 0.00 0.00 24 1006.8
20260906194054 37 275 6.4 16.1 0.00 0.00 0.00 24 1006.8
20260906193553 37 223 3.2 14.5 0.00 0.00 0.00 25 1006.8
20260906193053 37 282 4.8 12.9 0.00 0.00 0.00 24 1006.9
20260906192553 37 272 3.2 9.7 0.00 0.00 0.00 25 1006.9
20260906192052 37 222 3.2 12.9 0.00 0.00 0.00 25 1006.9
20260906191551 37 297 4.8 14.5 0.00 0.00 0.00 26 1006.9
20260906191051 37 248 4.8 17.7 0.00 0.00 0.00 26 1007.1
20260906190555 37 275 11.3 17.7 0.00 0.00 0.00 24 1007.2
20260906190106 37 236 6.4 16.1 0.00 0.00 0.00 24 1007.2
20260906185556 37 281 4.8 16.1 0.00 0.00 0.00 25 1007.3
20260906185051 38 327 3.2 9.7 0.00 0.00 0.00 24 1007.3
20260906184550 38 267 1.6 9.7 0.00 0.00 0.00 24 1007.5
20260906184049 38 331 1.6 11.3 0.00 0.00 0.00 23 1007.5
20260906183549 37 174 3.2 11.3 0.00 0.00 0.00 24 1007.6
20260906183104 38 201 3.2 9.7 0.00 0.00 0.00 24 1007.6
20260906182550 38 177 1.6 9.7 0.00 0.00 0.00 24 1007.8
20260906182047 38 174 1.6 6.4 0.00 0.00 0.00 24 1007.8
20260906181545 37 261 0.0 4.8 0.00 0.00 0.00 25 1007.9
20260906181049 37 190 1.6 6.4 0.00 0.00 0.00 25 1008.1
20260906180545 37 117 0.0 6.4 0.00 0.00 0.00 25 1008.2
20260906180100 37 217 0.0 6.4 0.00 0.00 0.00 25 1008.3
20260906175544 37 168 1.6 6.4 0.00 0.00 0.00 26 1008.3
20260906175041 37 5 0.0 4.8 0.00 0.00 0.00 26 1008.4
20260906174541 36 238 0.0 4.8 0.00 0.00 0.00 26 1008.4
20260906174040 36 169 1.6 4.8 0.00 0.00 0.00 27 1008.4
20260906173540 36 102 0.0 4.8 0.00 0.00 0.00 27 1008.5
20260906173039 36 98 0.0 6.4 0.00 0.00 0.00 28 1008.5
20260906172537 36 130 0.0 6.4 0.00 0.00 0.00 28 1008.6
20260906172036 35 153 0.0 4.8 0.00 0.00 0.00 28 1008.6
20260906171535 35 233 1.6 4.8 0.00 0.00 0.00 29 1008.6
20260906171036 35 105 1.6 4.8 0.00 0.00 0.00 29 1008.6
20260906170532 35 141 1.6 4.8 0.00 0.00 0.00 29 1008.6
20260906170103 35 160 0.0 4.8 0.00 0.00 0.00 31 1008.6
20260906165529 34 88 1.6 4.8 0.00 0.00 0.00 31 1008.7
20260906165030 33 155 0.0 4.8 0.00 0.00 0.00 31 1008.6
20260906164526 33 205 0.0 3.2 0.00 0.00 0.00 32 1008.7
20260906164026 33 267 0.0 3.2 0.00 0.00 0.00 32 1008.6
20260906163524 33 236 0.0 4.8 0.00 0.00 0.00 32 1008.6
20260906163024 33 156 1.6 4.8 0.00 0.00 0.00 32 1008.6
20260906162527 33 109 0.0 4.8 0.00 0.00 0.00 33 1008.5
20260906162022 33 194 1.6 4.8 0.00 0.00 0.00 33 1008.5
20260906161522 33 134 0.0 4.8 0.00 0.00 0.00 34 1008.5
20260906161021 32 126 0.0 3.2 0.00 0.00 0.00 35 1008.6
20260906160519 32 162 0.0 3.2 0.00 0.00 0.00 36 1008.5
20260906160018 32 12 0.0 3.2 0.00 0.00 0.00 37 1008.6
20260906155523 32 167 0.0 4.8 0.00 0.00 0.00 38 1008.6
20260906155014 32 148 0.0 4.8 0.00 0.00 0.00 38 1008.7
20260906154520 31 184 1.6 4.8 0.00 0.00 0.00 38 1008.7
20260906154014 31 109 1.6 8.0 0.00 0.00 0.00 38 1008.7
20260906153512 31 105 3.2 8.0 0.00 0.00 0.00 38 1008.7
20260906153016 31 141 0.0 4.8 0.00 0.00 0.00 38 1008.6
20260906152513 31 138 1.6 4.8 0.00 0.00 0.00 38 1008.6
20260906152011 31 140 0.0 3.2 0.00 0.00 0.00 39 1008.6
20260906151508 31 175 0.0 3.2 0.00 0.00 0.00 39 1008.5
20260906151006 31 130 0.0 3.2 0.00 0.00 0.00 39 1008.5
20260906150506 30 159 0.0 6.4 0.00 0.00 0.00 40 1008.5
20260906150005 30 153 0.0 6.4 0.00 0.00 0.00 40 1008.5
20260906145505 30 130 1.6 4.8 0.00 0.00 0.00 40 1008.4
20260906145002 29 126 0.0 3.2 0.00 0.00 0.00 42 1008.3
20260906144500 29 119 0.0 3.2 0.00 0.00 0.00 42 1008.3
20260906144100 28 125 0.0 3.2 0.00 0.00 0.00 45 1008.3
20260906143559 28 228 0.0 1.6 0.00 0.00 0.00 47 1008.3
20260906143128 28 228 0.0 1.6 0.00 0.00 0.00 47 1008.2
20260906142600 28 228 0.0 3.2 0.00 0.00 0.00 46 1008.2
20260906142057 28 228 0.0 3.2 0.00 0.00 0.00 48 1008.2
20260906141555 27 157 0.0 3.2 0.00 0.00 0.00 49 1008.0
20260906141056 27 157 0.0 3.2 0.00 0.00 0.00 52 1008.0
20260906140555 27 157 0.0 0.0 0.00 0.00 0.00 50 1007.9
20260906140054 27 157 0.0 3.2 0.00 0.00 0.00 47 1008.0
20260906135553 27 157 0.0 3.2 0.00 0.00 0.00 47 1007.9
20260906135054 26 188 0.0 0.0 0.00 0.00 0.00 47 1007.9
20260906134558 26 188 0.0 3.2 0.00 0.00 0.00 48 1007.9
20260906134049 26 271 0.0 0.0 0.00 0.00 0.00 49 1007.9
20260906133551 26 271 0.0 0.0 0.00 0.00 0.00 45 1007.8
20260906133049 26 271 0.0 0.0 0.00 0.00 0.00 44 1007.8
20260906132547 26 271 0.0 0.0 0.00 0.00 0.00 44 1007.8
20260906132046 26 41 0.0 6.4 0.00 0.00 0.00 47 1007.7
20260906131549 26 41 3.2 6.4 0.00 0.00 0.00 44 1007.6
20260906131045 26 24 0.0 4.8 0.00 0.00 0.00 47 1007.6
20260906130545 26 57 0.0 6.4 0.00 0.00 0.00 46 1007.6
20260906130051 26 71 1.6 6.4 0.00 0.00 0.00 45 1007.6
20260906125545 26 61 1.6 4.8 0.00 0.00 0.00 44 1007.5
20260906125045 27 38 0.0 4.8 0.00 0.00 0.00 45 1007.5
20260906124547 27 65 1.6 4.8 0.00 0.00 0.00 43 1007.4
20260906124045 27 314 0.0 0.0 0.00 0.00 0.00 45 1007.4
20260906123545 27 295 0.0 0.0 0.00 0.00 0.00 46 1007.3
20260906123112 27 295 0.0 0.0 0.00 0.00 0.00 45 1007.3
20260906122543 26 295 0.0 3.2 0.00 0.00 0.00 45 1007.3
20260906122044 26 295 0.0 6.4 0.00 0.00 0.00 45 1007.2
20260906121544 26 295 1.6 6.4 0.00 0.00 0.00 47 1007.3
20260906121043 26 122 0.0 3.2 0.00 0.00 0.00 44 1007.2
20260906120543 26 298 0.0 0.0 0.00 0.00 0.00 45 1007.4
20260906120043 26 298 0.0 0.0 0.00 0.00 0.00 47 1007.3
20260906115542 26 298 0.0 0.0 0.00 0.00 0.00 45 1007.3
20260906115042 26 298 0.0 0.0 0.00 0.00 0.00 47 1007.3
20260906114541 27 298 0.0 0.0 0.00 0.00 0.00 45 1007.3
20260906114043 27 298 0.0 0.0 0.00 0.00 0.00 48 1007.3
20260906113540 27 298 0.0 1.6 0.00 0.00 0.00 46 1007.3
20260906113042 27 298 0.0 1.6 0.00 0.00 0.00 46 1007.2
20260906112538 27 298 0.0 0.0 0.00 0.00 0.00 43 1007.2
20260906112038 27 298 0.0 0.0 0.00 0.00 0.00 44 1007.2
20260906111538 27 298 0.0 0.0 0.00 0.00 0.00 44 1007.2
20260906111037 27 298 0.0 0.0 0.00 0.00 0.00 45 1007.2
20260906110536 27 298 0.0 3.2 0.00 0.00 0.00 45 1007.2
20260906110036 27 298 0.0 3.2 0.00 0.00 0.00 42 1007.2
20260906105535 27 298 0.0 3.2 0.00 0.00 0.00 42 1007.3
20260906105034 27 298 0.0 3.2 0.00 0.00 0.00 44 1007.3
20260906104534 27 298 0.0 3.2 0.00 0.00 0.00 42 1007.3
20260906104037 27 298 0.0 0.0 0.00 0.00 0.00 44 1007.3
20260906103535 27 298 0.0 0.0 0.00 0.00 0.00 41 1007.3
20260906103033 27 298 0.0 0.0 0.00 0.00 0.00 43 1007.3
20260906102534 27 298 0.0 0.0 0.00 0.00 0.00 41 1007.3
20260906102033 27 298 0.0 3.2 0.00 0.00 0.00 41 1007.2
20260906101533 27 298 0.0 3.2 0.00 0.00 0.00 42 1007.1
20260906101032 27 298 0.0 3.2 0.00 0.00 0.00 42 1007.1
20260906100534 27 298 0.0 3.2 0.00 0.00 0.00 43 1007.1
20260906100032 28 298 0.0 0.0 0.00 0.00 0.00 42 1007.1
20260906095532 28 298 0.0 1.6 0.00 0.00 0.00 45 1007.2
20260906095034 28 298 0.0 1.6 0.00 0.00 0.00 44 1007.1
20260906094530 28 298 0.0 3.2 0.00 0.00 0.00 44 1007.1
20260906094030 28 298 0.0 3.2 0.00 0.00 0.00 43 1007.0
20260906093530 28 298 0.0 3.2 0.00 0.00 0.00 40 1007.0
20260906093029 28 298 0.0 3.2 0.00 0.00 0.00 40 1007.0
20260906092527 28 298 0.0 0.0 0.00 0.00 0.00 42 1007.0
20260906092026 28 298 0.0 0.0 0.00 0.00 0.00 42 1007.0
20260906091532 28 298 0.0 3.2 0.00 0.00 0.00 41 1007.1
20260906091025 28 298 0.0 3.2 0.00 0.00 0.00 40 1007.1
20260906090524 28 298 0.0 3.2 0.00 0.00 0.00 42 1007.1
20260906090024 28 298 0.0 3.2 0.00 0.00 0.00 42 1007.1
20260906085527 29 298 0.0 3.2 0.00 0.00 0.00 41 1007.1
20260906085023 29 159 0.0 3.2 0.00 0.00 0.00 39 1007.1
20260906084523 29 326 0.0 3.2 0.00 0.00 0.00 38 1007.2
20260906084026 29 326 0.0 3.2 0.00 0.00 0.00 38 1007.2
20260906083524 29 326 0.0 1.6 0.00 0.00 0.00 39 1007.3
20260906083027 29 315 0.0 0.0 0.00 0.00 0.00 39 1007.2
20260906082522 29 315 0.0 0.0 0.00 0.00 0.00 41 1007.2
20260906082022 29 315 0.0 0.0 0.00 0.00 0.00 37 1007.2
20260906081521 29 315 0.0 3.2 0.00 0.00 0.00 37 1007.2
20260906081021 29 310 0.0 3.2 0.00 0.00 0.00 37 1007.3
20260906080522 29 62 0.0 0.0 0.00 0.00 0.00 40 1007.3
20260906080028 29 62 0.0 3.2 0.00 0.00 0.00 42 1007.4
20260906075519 29 62 0.0 3.2 0.00 0.00 0.00 37 1007.5
20260906075019 30 62 0.0 0.0 0.00 0.00 0.00 37 1007.5
20260906074519 30 62 0.0 0.0 0.00 0.00 0.00 39 1007.5
20260906074019 30 62 0.0 0.0 0.00 0.00 0.00 37 1007.5
20260906073518 30 62 0.0 0.0 0.00 0.00 0.00 37 1007.6
20260906073018 30 62 0.0 3.2 0.00 0.00 0.00 38 1007.6
20260906072516 30 62 0.0 4.8 0.00 0.00 0.00 37 1007.7
20260906072016 30 57 0.0 6.4 0.00 0.00 0.00 38 1007.7
20260906071514 29 29 0.0 6.4 0.00 0.00 0.00 40 1007.7
20260906071015 29 33 0.0 3.2 0.00 0.00 0.00 41 1007.8
20260906070512 29 5 0.0 0.0 0.00 0.00 0.00 42 1007.8
20260906070011 29 5 0.0 0.0 0.00 0.00 0.00 44 1007.9
20260906065511 29 5 0.0 0.0 0.00 0.00 0.00 45 1007.9
20260906065011 29 5 0.0 0.0 0.00 0.00 0.00 44 1007.9
20260906064511 29 5 0.0 0.0 0.00 0.00 0.00 43 1007.8
20260906064011 29 5 0.0 0.0 0.00 0.00 0.00 44 1007.8
20260906063510 29 5 0.0 0.0 0.00 0.00 0.00 39 1007.8
20260906063010 29 5 0.0 0.0 0.00 0.00 0.00 41 1007.8
20260906062509 29 5 0.0 0.0 0.00 0.00 0.00 42 1007.8
20260906062010 29 111 0.0 0.0 0.00 0.00 0.00 40 1007.8
20260906061510 29 111 0.0 3.2 0.00 0.00 0.00 41 1007.8
20260906061009 30 40 0.0 3.2 0.00 0.00 0.00 43 1007.8
20260906060511 30 257 0.0 0.0 0.00 0.00 0.00 45 1007.7
20260906060008 30 257 0.0 0.0 0.00 0.00 0.00 48 1007.7
20260906055510 30 257 0.0 0.0 0.00 0.00 0.00 44 1007.8
20260906055008 30 257 0.0 0.0 0.00 0.00 0.00 44 1007.8
20260906054509 30 257 0.0 0.0 0.00 0.00 0.00 40 1007.8
20260906054009 30 257 0.0 0.0 0.00 0.00 0.00 44 1007.8
20260906053512 30 257 0.0 0.0 0.00 0.00 0.00 39 1007.9
20260906053008 30 257 0.0 0.0 0.00 0.00 0.00 37 1007.9
20260906052508 30 257 0.0 0.0 0.00 0.00 0.00 36 1007.8
20260906052009 30 257 0.0 0.0 0.00 0.00 0.00 41 1007.8
20260906051507 30 257 0.0 0.0 0.00 0.00 0.00 40 1007.8
20260906051009 30 257 0.0 1.6 0.00 0.00 0.00 42 1007.8
20260906050509 30 257 0.0 3.2 0.00 0.00 0.00 40 1007.9
20260906050008 30 257 0.0 3.2 0.00 0.00 0.00 36 1007.9
20260906045510 30 257 0.0 0.0 0.00 0.00 0.00 36 1007.9
20260906045008 30 257 0.0 0.0 0.00 0.00 0.00 44 1007.9
20260906044507 30 257 0.0 0.0 0.00 0.00 0.00 44 1007.9
20260906044010 30 257 0.0 0.0 0.00 0.00 0.00 39 1007.9
20260906043506 31 257 0.0 3.2 0.00 0.00 0.00 41 1008.0
20260906043006 31 257 0.0 3.2 0.00 0.00 0.00 36 1007.9
20260906042505 31 257 0.0 3.2 0.00 0.00 0.00 43 1008.0
20260906042005 31 257 0.0 0.0 0.00 0.00 0.00 38 1008.0
20260906041506 31 257 0.0 0.0 0.00 0.00 0.00 35 1008.0
20260906041008 31 257 0.0 0.0 0.00 0.00 0.00 36 1008.1
20260906040505 31 257 0.0 0.0 0.00 0.00 0.00 35 1008.0
20260906040008 31 257 0.0 0.0 0.00 0.00 0.00 38 1008.1
20260906035507 31 257 0.0 0.0 0.00 0.00 0.00 39 1008.0
20260906035005 31 257 0.0 0.0 0.00 0.00 0.00 38 1008.0
20260906034505 31 257 0.0 0.0 0.00 0.00 0.00 36 1007.9
20260906034004 32 257 0.0 0.0 0.00 0.00 0.00 36 1007.8
20260906033505 32 257 0.0 0.0 0.00 0.00 0.00 38 1007.7
20260906033012 32 257 0.0 0.0 0.00 0.00 0.00 36 1007.7
20260906032503 32 257 0.0 0.0 0.00 0.00 0.00 37 1007.5
20260906032004 32 257 0.0 0.0 0.00 0.00 0.00 35 1007.5
20260906031503 32 257 0.0 0.0 0.00 0.00 0.00 35 1007.4
20260906031004 32 257 0.0 0.0 0.00 0.00 0.00 35 1007.4
20260906030504 32 257 0.0 3.2 0.00 0.00 0.00 33 1007.3
20260906030004 32 257 0.0 3.2 0.00 0.00 0.00 32 1007.3
20260906025503 32 257 0.0 0.0 0.00 0.00 0.00 33 1007.2
20260906025004 33 257 0.0 0.0 0.00 0.00 0.00 33 1007.2
20260906024502 33 257 0.0 0.0 0.00 0.00 0.00 33 1007.2
20260906024003 33 257 0.0 0.0 0.00 0.00 0.00 31 1007.1
20260906023504 33 257 0.0 3.2 0.00 0.00 0.00 31 1007.2
20260906023002 33 257 0.0 3.2 0.00 0.00 0.00 30 1007.1
20260906022505 33 302 0.0 3.2 0.00 0.00 0.00 30 1007.1
20260906022003 33 302 0.0 3.2 0.00 0.00 0.00 29 1007.1
20260906021502 33 275 0.0 6.4 0.00 0.00 0.00 29 1007.2
20260906021001 33 293 3.2 6.4 0.00 0.00 0.00 29 1007.2
20260906020602 33 304 1.6 8.0 0.00 0.00 0.00 29 1007.2
20260906020107 33 311 3.2 8.0 0.00 0.00 0.00 29 1007.3
20260906015601 33 315 3.2 8.0 0.00 0.00 0.00 29 1007.3
20260906015059 33 304 4.8 12.9 0.00 0.00 0.00 29 1007.3
20260906014602 33 329 3.2 12.9 0.00 0.00 0.00 29 1007.4
20260906014059 33 311 1.6 8.0 0.00 0.00 0.00 29 1007.4
20260906013601 34 331 3.2 8.0 0.00 0.00 0.00 29 1007.4
20260906013109 34 284 3.2 12.9 0.00 0.00 0.00 29 1007.5
20260906012559 34 286 6.4 14.5 0.00 0.00 0.00 29 1007.5
20260906012058 34 297 9.7 14.5 0.00 0.00 0.00 28 1007.6
20260906011606 34 294 6.4 14.5 0.00 0.00 0.00 28 1007.5
20260906011058 34 261 8.0 17.7 0.00 0.00 0.00 28 1007.4
20260906010557 34 310 11.3 17.7 0.00 0.00 0.00 28 1007.5
20260906010059 35 302 8.0 14.5 0.00 0.00 0.00 28 1007.5
20260906005557 35 301 8.0 14.5 0.00 0.00 0.00 28 1007.5
20260906005057 35 265 4.8 14.5 0.00 0.00 0.00 28 1007.4
20260906004604 35 292 6.4 12.9 0.00 0.00 0.00 27 1007.4
20260906004057 35 293 4.8 11.3 0.00 0.00 0.00 27 1007.3
20260906003558 35 321 3.2 14.5 0.00 0.00 0.00 27 1007.4
20260906003103 35 338 4.8 14.5 0.00 0.00 0.00 28 1007.4
20260906002556 35 296 4.8 16.1 0.00 0.00 0.00 27 1007.3
20260906002056 35 322 8.0 16.1 0.00 0.00 0.00 27 1007.4
20260906001556 35 301 3.2 12.9 0.00 0.00 0.00 27 1007.3
20260906001057 35 343 6.4 19.3 0.00 0.00 0.00 26 1007.3
20260906000555 36 319 9.7 19.3 0.00 0.00 0.00 26 1007.3
20260906000058 36 292 3.2 19.3 0.00 0.00 0.00 27 1007.4
20260905235556 36 276 9.7 19.3 0.00 0.00 0.00 26 1007.5
20260905235056 36 270 8.0 16.1 0.00 0.00 0.00 26 1007.4
20260905234556 36 324 9.7 16.1 0.00 0.00 0.00 26 1007.4
20260905234056 36 313 3.2 14.5 0.00 0.00 0.00 26 1007.3
20260905233556 36 281 4.8 16.1 0.00 0.00 0.00 25 1007.3
20260905233054 36 289 9.7 16.1 0.00 0.00 0.00 25 1007.3
20260905232554 36 301 9.7 16.1 0.00 0.00 0.00 25 1007.3
20260905232054 36 290 4.8 16.1 0.00 0.00 0.00 25 1007.3
20260905231554 36 281 6.4 17.7 0.00 0.00 0.00 25 1007.3
20260905231053 37 274 8.0 17.7 0.00 0.00 0.00 24 1007.3
20260905230553 37 304 1.6 11.3 0.00 0.00 0.00 24 1007.4
20260905230054 37 300 4.8 14.5 0.00 0.00 0.00 24 1007.4
20260905225553 37 294 8.0 16.1 0.00 0.00 0.00 23 1007.4
20260905225052 37 257 3.2 16.1 0.00 0.00 0.00 23 1007.4
20260905224555 38 261 9.7 16.1 0.00 0.00 0.00 23 1007.5
20260905224052 38 309 3.2 12.9 0.00 0.00 0.00 23 1007.4
20260905223553 38 281 3.2 12.9 0.00 0.00 0.00 23 1007.4
20260905223051 37 286 1.6 12.9 0.00 0.00 0.00 23 1007.5
20260905222549 37 323 6.4 11.3 0.00 0.00 0.00 23 1007.5